Weather History for Cincinnati, OH

Change the Weather History Date:

Tuesday, December 11, 2012

  Actual Average Record
Temperature  
Mean Temperature 30 °F -  
Max Temperature 35 °F 45 °F 69 °F (2007)
Min Temperature 23 °F 28 °F 5 °F (1977)
Degree Days  
Heating Degree Days 35    
Moisture  
Dew Point 26 °F    
Average Humidity 79    
Maximum Humidity 100    
Minimum Humidity 64    
Precipitation  
Precipitation 0.00 in - - ()
Sea Level Pressure  
Sea Level Pressure 30.15 in    
Wind  
Wind Speed 7 mph (WSW)    
Max Wind Speed 10 mph    
Max Gust Speed 16 mph    
Visibility 10 miles    
Events      
Averages and records for this station are not official NWS values.
T = Trace of Precipitation, MM = Missing Value Source: NWS Daily Summary

Daily Weather History Graph

Daily Weather History Graph

Search for Another Location

Airport:

Trip Planner

Search our weather history database for the weather conditions in past years. The results will help you decide how hot, cold, wet, or windy it might be!

Date:

Astronomy

Dec. 11, 2012 Rise Set
Actual Time 7:47 AM EST 5:15 PM EST
Civil Twilight 7:17 AM EST 5:45 PM EST
Nautical Twilight 6:43 AM EST 6:18 PM EST
Astronomical Twilight 6:11 AM EST 6:51 PM EST
Moon 5:41 AM EST (12/11) 3:53 PM EST (12/11)
Length of Visible Light 10h 28m
Length of Day
9h 28m
Waning Crescent, 4% of the Moon is Illuminated
Dec 11
Waning Crescent
Dec 13
New
Dec 20
First Quarter
Dec 28
Full
Jan 4
Last Quarter

Hourly Weather History & Observations

Time (EST) Temp. Windchill Dew Point Humidity Pressure Visibility Wind Dir Wind Speed Gust Speed Precip Events Conditions
12:53 AM 33.1 °F 25.5 °F 28.9 °F 85% 29.99 in 8.0 mi West 9.2 mph - N/A   Overcast
1:53 AM 33.1 °F 25.5 °F 30.0 °F 89% 29.99 in 8.0 mi West 9.2 mph - N/A   Overcast
2:53 AM 34.0 °F 28.0 °F 30.0 °F 85% 30.01 in 9.0 mi West 6.9 mph - N/A   Overcast
3:53 AM 33.1 °F 26.1 °F 30.0 °F 89% 30.03 in 9.0 mi West 8.1 mph - N/A   Overcast
4:53 AM 34.0 °F 26.0 °F 28.9 °F 82% 30.04 in 10.0 mi West 10.4 mph - N/A   Overcast
5:53 AM 34.0 °F 27.2 °F 27.0 °F 75% 30.05 in 10.0 mi WNW 8.1 mph 16.1 mph N/A   Overcast
6:53 AM 34.0 °F - 27.0 °F 75% 30.07 in 10.0 mi Calm Calm - N/A   Overcast
7:53 AM 34.0 °F 28.0 °F 26.1 °F 73% 30.10 in 10.0 mi West 6.9 mph - N/A   Overcast
8:53 AM 33.1 °F 25.5 °F 26.1 °F 75% 30.12 in 10.0 mi West 9.2 mph - N/A   Overcast
9:53 AM 33.1 °F 26.1 °F 25.0 °F 72% 30.15 in 10.0 mi West 8.1 mph - N/A   Overcast
10:53 AM 33.1 °F 28.7 °F 26.1 °F 75% 30.18 in 10.0 mi West 4.6 mph - N/A   Overcast
11:53 AM 33.1 °F 25.5 °F 26.1 °F 75% 30.18 in 10.0 mi West 9.2 mph - N/A   Overcast
12:39 PM 33.8 °F 27.0 °F 24.8 °F 70% 30.17 in 10.0 mi SW 8.1 mph - N/A   Overcast
12:53 PM 33.1 °F 26.1 °F 24.1 °F 70% 30.18 in 10.0 mi SW 8.1 mph - N/A   Overcast
1:53 PM 34.0 °F 26.6 °F 24.1 °F 67% 30.17 in 10.0 mi SSW 9.2 mph - N/A   Overcast
2:53 PM 34.0 °F 28.0 °F 23.0 °F 64% 30.17 in 10.0 mi SSW 6.9 mph - N/A   Overcast
3:53 PM 35.1 °F 28.6 °F 25.0 °F 67% 30.18 in 10.0 mi SSW 8.1 mph - N/A   Overcast
4:53 PM 32.0 °F 24.8 °F 24.1 °F 73% 30.21 in 10.0 mi SW 8.1 mph - 0.00 in   Scattered Clouds
5:53 PM 28.9 °F 25.2 °F 23.0 °F 78% 30.21 in 10.0 mi SW 3.5 mph - N/A   Clear
6:53 PM 28.9 °F - 25.0 °F 85% 30.22 in 10.0 mi Calm Calm - N/A   Clear
7:53 PM 28.0 °F 22.8 °F 23.0 °F 81% 30.24 in 10.0 mi SSW 4.6 mph - N/A   Clear
8:53 PM 28.0 °F 24.2 °F 24.1 °F 85% 30.25 in 10.0 mi SSW 3.5 mph - N/A   Clear
9:53 PM 25.0 °F - 21.9 °F 88% 30.26 in 10.0 mi Calm Calm - N/A   Clear
10:53 PM 25.0 °F - 23.0 °F 92% 30.28 in 9.0 mi Calm Calm - N/A   Clear
11:53 PM 23.0 °F - 23.0 °F 100% 30.30 in 7.0 mi Calm Calm - N/A   Clear